Find Starlink 4372

NORAD ID: 53233 Int'l Des: 2022-084 Owner: SPXS Country: US Constellation: starlink operational
LEOCIRCULARRETROGRADESSO

リアルタイム位置

3D地球を読み込み中...

Starlink 4372について

説明を読み込み中...

次回通過

Passes for default location (London). Set your location on the main map for personalized predictions.

高度履歴

Loading altitude history...

軌道要素

1 53233U 22084AW 26129.44839391 .00002673 00000-0 18923-3 0 9997
2 53233 97.5213 189.8534 0001844 117.0776 243.0639 15.05670024208455
Epoch: May 9, 2026 • Age: 13 hours

現在のステータス

高度 567.6 km
速度 7.58 km/s
衛星直下点 -43.94°S, 20.02°W
打ち上げ日 Jul 22, 2022
運用期間 3.7 years
タイプ internet

技術仕様

分類 Payload
質量 297.00 kg
乾燥質量 275.00 kg
総質量 297.00 kg
長さ 0.20 m
直径 2.80 m
スパン 9.00 m
形状 Box + pan
製造者 SPXS
バスタイプ Starlink
フェーズステータス In Orbit
所有者/国 SPXS/US

Most Searched